Time,TemperatureF,DewpointF,PressureIn,WindDirection,WindDirectionDegrees,WindSpeedMPH,WindSpeedGustMPH,Humidity,HourlyPrecipIn,Conditions,Clouds,dailyrainin,SoftwareType,DateUTC
2013-03-04 00:01:00,22.0,14.0,30.10,North,0,0.0,0.0,72,0.00,,,0.00,,2013-03-04 05:01:00,
2013-03-04 00:11:00,22.0,14.0,30.10,North,0,0.0,0.0,72,0.00,,,0.00,,2013-03-04 05:11:00,
2013-03-04 00:22:00,22.0,14.0,30.11,North,0,0.0,0.0,72,0.00,,,0.00,,2013-03-04 05:22:00,
2013-03-04 00:32:00,21.0,13.0,30.11,North,0,0.0,0.0,72,0.00,,,0.00,,2013-03-04 05:32:00,
2013-03-04 00:42:00,21.0,14.0,30.12,North,0,0.0,0.0,73,0.00,,,0.00,,2013-03-04 05:42:00,
2013-03-04 00:52:00,21.0,14.0,30.12,North,0,0.0,0.0,73,0.00,,,0.00,,2013-03-04 05:52:00,
2013-03-04 01:02:00,21.0,14.0,30.12,North,0,0.0,0.0,73,0.00,,,0.00,,2013-03-04 06:02:00,
2013-03-04 01:11:00,21.0,14.0,30.12,North,0,0.0,0.0,73,0.00,,,0.00,,2013-03-04 06:11:00,
2013-03-04 01:22:00,20.0,13.0,30.12,North,0,0.0,0.0,74,0.00,,,0.00,,2013-03-04 06:22:00,
2013-03-04 01:32:00,20.0,13.0,30.12,North,0,0.0,0.0,74,0.00,,,0.00,,2013-03-04 06:32:00,
2013-03-04 01:42:00,20.0,13.0,30.12,North,0,0.0,0.0,74,0.00,,,0.00,,2013-03-04 06:42:00,
2013-03-04 01:52:00,20.0,13.0,30.12,North,0,0.0,0.0,74,0.00,,,0.00,,2013-03-04 06:52:00,
2013-03-04 02:01:00,20.0,13.0,30.12,North,0,0.0,0.0,74,0.00,,,0.00,,2013-03-04 07:01:00,
2013-03-04 02:11:00,20.0,13.0,30.12,North,0,0.0,0.0,74,0.00,,,0.00,,2013-03-04 07:11:00,
2013-03-04 02:22:00,19.0,12.0,30.12,North,0,0.0,0.0,75,0.00,,,0.00,,2013-03-04 07:22:00,
2013-03-04 02:32:00,19.0,12.0,30.12,North,0,0.0,0.0,75,0.00,,,0.00,,2013-03-04 07:32:00,
2013-03-04 02:42:00,19.0,12.0,30.12,North,0,0.0,0.0,75,0.00,,,0.00,,2013-03-04 07:42:00,
2013-03-04 02:52:00,19.0,12.0,30.13,North,0,0.0,0.0,75,0.00,,,0.00,,2013-03-04 07:52:00,
2013-03-04 03:02:00,19.0,13.0,30.13,North,0,0.0,0.0,76,0.00,,,0.00,,2013-03-04 08:02:00,
2013-03-04 03:11:00,19.0,13.0,30.13,North,0,0.0,0.0,76,0.00,,,0.00,,2013-03-04 08:11:00,
2013-03-04 03:22:00,19.0,13.0,30.13,North,0,0.0,0.0,76,0.00,,,0.00,,2013-03-04 08:22:00,
2013-03-04 03:32:00,18.0,12.0,30.13,North,0,0.0,0.0,76,0.00,,,0.00,,2013-03-04 08:32:00,
2013-03-04 03:42:00,18.0,12.0,30.13,North,0,0.0,0.0,76,0.00,,,0.00,,2013-03-04 08:42:00,
2013-03-04 03:52:00,18.0,12.0,30.13,North,0,0.0,0.0,77,0.00,,,0.00,,2013-03-04 08:52:00,
2013-03-04 04:02:00,18.0,12.0,30.13,North,0,0.0,0.0,77,0.00,,,0.00,,2013-03-04 09:02:00,
2013-03-04 04:11:00,18.0,12.0,30.13,North,0,0.0,0.0,77,0.00,,,0.00,,2013-03-04 09:11:00,
2013-03-04 04:22:00,18.0,12.0,30.13,North,0,0.0,0.0,78,0.00,,,0.00,,2013-03-04 09:22:00,
2013-03-04 04:32:00,18.0,12.0,30.13,North,0,0.0,0.0,77,0.00,,,0.00,,2013-03-04 09:32:00,
2013-03-04 04:42:00,18.0,12.0,30.13,North,0,0.0,0.0,77,0.00,,,0.00,,2013-03-04 09:42:00,
2013-03-04 04:52:00,18.0,12.0,30.13,North,0,0.0,0.0,77,0.00,,,0.00,,2013-03-04 09:52:00,
2013-03-04 05:01:00,17.0,11.0,30.14,North,0,0.0,0.0,78,0.00,,,0.00,,2013-03-04 10:01:00,
2013-03-04 05:11:00,17.0,11.0,30.14,North,0,0.0,0.0,78,0.00,,,0.00,,2013-03-04 10:11:00,
2013-03-04 05:22:00,17.0,11.0,30.14,North,0,0.0,0.0,78,0.00,,,0.00,,2013-03-04 10:22:00,
2013-03-04 05:32:00,17.0,11.0,30.14,North,0,0.0,0.0,78,0.00,,,0.00,,2013-03-04 10:32:00,
2013-03-04 05:42:00,17.0,11.0,30.14,North,0,0.0,0.0,78,0.00,,,0.00,,2013-03-04 10:42:00,
2013-03-04 05:52:00,17.0,11.0,30.14,North,0,0.0,0.0,78,0.00,,,0.00,,2013-03-04 10:52:00,
2013-03-04 06:02:00,17.0,12.0,30.15,North,0,0.0,0.0,79,0.00,,,0.00,,2013-03-04 11:02:00,
2013-03-04 06:11:00,17.0,12.0,30.15,North,0,0.0,0.0,79,0.00,,,0.00,,2013-03-04 11:11:00,
2013-03-04 06:22:00,17.0,12.0,30.15,North,0,0.0,0.0,79,0.00,,,0.00,,2013-03-04 11:22:00,
2013-03-04 06:32:00,17.0,12.0,30.14,North,0,0.0,0.0,79,0.00,,,0.00,,2013-03-04 11:32:00,
2013-03-04 06:42:00,17.0,12.0,30.14,North,0,0.0,0.0,79,0.00,,,0.00,,2013-03-04 11:42:00,
2013-03-04 06:52:00,17.0,12.0,30.14,North,0,0.0,0.0,79,0.00,,,0.00,,2013-03-04 11:52:00,
2013-03-04 07:02:00,17.0,12.0,30.14,North,0,0.0,0.0,79,0.00,,,0.00,,2013-03-04 12:02:00,
2013-03-04 07:11:00,17.0,12.0,30.15,North,0,0.0,0.0,80,0.00,,,0.00,,2013-03-04 12:11:00,
2013-03-04 07:22:00,17.0,12.0,30.15,North,0,0.0,0.0,80,0.00,,,0.00,,2013-03-04 12:22:00,
2013-03-04 07:32:00,17.0,12.0,30.15,North,0,0.0,0.0,80,0.00,,,0.00,,2013-03-04 12:32:00,
2013-03-04 07:42:00,17.0,12.0,30.15,North,0,0.0,0.0,80,0.00,,,0.00,,2013-03-04 12:42:00,
2013-03-04 07:52:00,17.0,12.0,30.15,North,0,0.0,0.0,80,0.00,,,0.00,,2013-03-04 12:52:00,
2013-03-04 08:02:00,18.0,13.0,30.15,North,0,0.0,0.0,81,0.00,,,0.00,,2013-03-04 13:02:00,
2013-03-04 08:11:00,18.0,13.0,30.15,North,0,0.0,0.0,81,0.00,,,0.00,,2013-03-04 13:11:00,
2013-03-04 08:21:00,18.0,13.0,30.15,North,0,0.0,0.0,81,0.00,,,0.00,,2013-03-04 13:21:00,
2013-03-04 08:32:00,20.0,15.0,30.15,North,0,0.0,0.0,82,0.00,,,0.00,,2013-03-04 13:32:00,
2013-03-04 08:42:00,20.0,15.0,30.15,North,0,0.0,0.0,82,0.00,,,0.00,,2013-03-04 13:42:00,
2013-03-04 08:52:00,21.0,16.0,30.15,North,0,0.0,0.0,82,0.00,,,0.00,,2013-03-04 13:52:00,
2013-03-04 09:01:00,22.0,18.0,30.16,North,0,0.0,0.0,83,0.00,,,0.00,,2013-03-04 14:01:00,
2013-03-04 09:11:00,22.0,18.0,30.16,North,0,0.0,0.0,83,0.00,,,0.00,,2013-03-04 14:11:00,
2013-03-04 09:22:00,22.0,18.0,30.15,South,180,0.0,0.0,83,0.00,,,0.00,,2013-03-04 14:22:00,
2013-03-04 09:32:00,26.0,20.0,30.16,SSE,157,2.0,2.0,79,0.00,,,0.00,,2013-03-04 14:32:00,
2013-03-04 09:42:00,26.0,20.0,30.16,SSE,157,2.0,2.0,79,0.00,,,0.00,,2013-03-04 14:42:00,
2013-03-04 09:52:00,27.0,21.0,30.16,South,180,0.0,0.0,78,0.00,,,0.00,,2013-03-04 14:52:00,
2013-03-04 10:02:00,28.0,21.0,30.15,SE,135,1.0,2.0,76,0.00,,,0.00,,2013-03-04 15:02:00,
2013-03-04 10:11:00,28.0,21.0,30.15,SE,135,1.0,2.0,76,0.00,,,0.00,,2013-03-04 15:11:00,
2013-03-04 10:22:00,29.0,22.0,30.15,East,90,0.0,1.0,75,0.00,,,0.00,,2013-03-04 15:22:00,
2013-03-04 10:32:00,29.0,22.0,30.14,SSE,157,0.0,0.0,74,0.00,,,0.00,,2013-03-04 15:32:00,
2013-03-04 10:42:00,29.0,22.0,30.14,SSE,157,0.0,0.0,74,0.00,,,0.00,,2013-03-04 15:42:00,
2013-03-04 10:52:00,29.0,21.0,30.14,SSE,157,0.0,0.0,72,0.00,,,0.00,,2013-03-04 15:52:00,
2013-03-04 11:03:00,30.0,22.0,30.14,South,180,2.0,2.0,72,0.00,,,0.00,,2013-03-04 16:03:00,
2013-03-04 11:11:00,30.0,22.0,30.14,South,180,2.0,2.0,72,0.00,,,0.00,,2013-03-04 16:11:00,
2013-03-04 11:21:00,31.0,23.0,30.13,SW,225,0.0,2.0,71,0.00,,,0.00,,2013-03-04 16:21:00,
2013-03-04 11:32:00,30.0,21.0,30.13,SSW,202,1.0,1.0,69,0.00,,,0.00,,2013-03-04 16:32:00,
2013-03-04 11:42:00,30.0,21.0,30.13,SSW,202,1.0,1.0,69,0.00,,,0.00,,2013-03-04 16:42:00,
2013-03-04 11:52:00,30.0,21.0,30.13,SSE,157,0.0,2.0,69,0.00,,,0.00,,2013-03-04 16:52:00,
2013-03-04 12:02:00,29.0,19.0,30.13,SSE,157,0.0,0.0,67,0.00,,,0.00,,2013-03-04 17:02:00,
2013-03-04 12:11:00,29.0,19.0,30.13,SSE,157,0.0,0.0,67,0.00,,,0.00,,2013-03-04 17:11:00,
2013-03-04 12:22:00,28.0,18.0,30.12,South,180,3.0,3.0,67,0.00,,,0.00,,2013-03-04 17:22:00,
2013-03-04 12:32:00,28.0,18.0,30.11,SSE,157,2.0,3.0,66,0.00,,,0.00,,2013-03-04 17:32:00,
2013-03-04 12:42:00,28.0,18.0,30.11,SSE,157,2.0,3.0,66,0.00,,,0.00,,2013-03-04 17:42:00,
2013-03-04 12:52:00,28.0,18.0,30.11,South,180,0.0,2.0,65,0.00,,,0.00,,2013-03-04 17:52:00,
2013-03-04 13:01:00,27.0,16.0,30.10,SSE,157,0.0,0.0,64,0.00,,,0.00,,2013-03-04 18:01:00,
2013-03-04 13:11:00,27.0,16.0,30.10,SSE,157,0.0,0.0,64,0.00,,,0.00,,2013-03-04 18:11:00,
2013-03-04 13:22:00,27.0,16.0,30.10,SSE,157,0.0,0.0,64,0.00,,,0.00,,2013-03-04 18:22:00,
2013-03-04 13:32:00,27.0,16.0,30.10,ESE,112,2.0,3.0,63,0.00,,,0.00,,2013-03-04 18:32:00,
2013-03-04 13:42:00,27.0,16.0,30.10,ESE,112,2.0,3.0,63,0.00,,,0.00,,2013-03-04 18:42:00,
2013-03-04 13:52:00,28.0,17.0,30.09,SW,225,3.0,3.0,62,0.00,,,0.00,,2013-03-04 18:52:00,
2013-03-04 14:02:00,28.0,16.0,30.08,SSE,157,4.0,5.0,61,0.00,,,0.00,,2013-03-04 19:02:00,
2013-03-04 14:11:00,28.0,16.0,30.08,SSE,157,4.0,5.0,61,0.00,,,0.00,,2013-03-04 19:11:00,
2013-03-04 14:22:00,28.0,16.0,30.08,SSE,157,0.0,2.0,60,0.00,,,0.00,,2013-03-04 19:22:00,
2013-03-04 14:32:00,28.0,16.0,30.08,South,175,3.0,3.0,60,0.00,,,0.00,,2013-03-04 19:32:00,
2013-03-04 14:42:00,28.0,16.0,30.08,South,175,3.0,3.0,60,0.00,,,0.00,,2013-03-04 19:42:00,
2013-03-04 14:52:00,29.0,16.0,30.07,SSE,157,1.0,5.0,59,0.00,,,0.00,,2013-03-04 19:52:00,
2013-03-04 15:02:00,29.0,16.0,30.07,ESE,112,4.0,5.0,59,0.00,,,0.00,,2013-03-04 20:02:00,
2013-03-04 15:11:00,30.0,17.0,30.06,SSE,157,0.0,2.0,59,0.00,,,0.00,,2013-03-04 20:11:00,
2013-03-04 15:22:00,30.0,17.0,30.06,SSE,157,0.0,2.0,59,0.00,,,0.00,,2013-03-04 20:22:00,
2013-03-04 15:32:00,31.0,18.0,30.05,South,180,0.0,4.0,59,0.00,,,0.00,,2013-03-04 20:32:00,
2013-03-04 15:42:00,31.0,18.0,30.05,South,180,0.0,4.0,59,0.00,,,0.00,,2013-03-04 20:42:00,
2013-03-04 15:53:00,31.0,19.0,30.05,SE,135,1.0,2.0,60,0.00,,,0.00,,2013-03-04 20:53:00,
2013-03-04 16:02:00,32.0,20.0,30.05,SE,135,0.0,0.0,60,0.00,,,0.00,,2013-03-04 21:02:00,
2013-03-04 16:12:00,32.0,20.0,30.05,SE,135,0.0,0.0,60,0.00,,,0.00,,2013-03-04 21:12:00,
2013-03-04 16:22:00,33.0,21.0,30.05,East,90,0.0,1.0,60,0.00,,,0.00,,2013-03-04 21:22:00,
2013-03-04 16:32:00,33.0,21.0,30.05,ESE,112,1.0,2.0,60,0.00,,,0.00,,2013-03-04 21:32:00,
2013-03-04 16:42:00,33.0,21.0,30.05,ESE,112,1.0,2.0,60,0.00,,,0.00,,2013-03-04 21:42:00,
2013-03-04 16:53:00,34.0,22.0,30.04,SE,135,3.0,4.0,60,0.00,,,0.00,,2013-03-04 21:53:00,
2013-03-04 17:02:00,34.0,22.0,30.04,ESE,109,1.0,5.0,60,0.00,,,0.00,,2013-03-04 22:02:00,
2013-03-04 17:12:00,34.0,22.0,30.04,ESE,109,1.0,5.0,60,0.00,,,0.00,,2013-03-04 22:12:00,
2013-03-04 17:22:00,35.0,23.0,30.04,South,180,0.0,0.0,60,0.00,,,0.00,,2013-03-04 22:22:00,
2013-03-04 17:32:00,35.0,23.0,30.04,ENE,68,3.0,3.0,60,0.00,,,0.00,,2013-03-04 22:32:00,
2013-03-04 17:42:00,35.0,23.0,30.04,ENE,68,3.0,3.0,60,0.00,,,0.00,,2013-03-04 22:42:00,
2013-03-04 17:52:00,35.0,23.0,30.04,SE,135,0.0,1.0,60,0.00,,,0.00,,2013-03-04 22:52:00,
2013-03-04 18:02:00,35.0,23.0,30.03,ENE,67,0.0,0.0,60,0.00,,,0.00,,2013-03-04 23:02:00,
2013-03-04 18:11:00,35.0,23.0,30.03,ENE,67,0.0,0.0,60,0.00,,,0.00,,2013-03-04 23:11:00,
2013-03-04 18:22:00,35.0,23.0,30.02,East,90,0.0,1.0,61,0.00,,,0.00,,2013-03-04 23:22:00,
2013-03-04 18:32:00,35.0,23.0,30.03,East,90,3.0,3.0,61,0.00,,,0.00,,2013-03-04 23:32:00,
2013-03-04 18:42:00,35.0,23.0,30.03,East,90,3.0,3.0,61,0.00,,,0.00,,2013-03-04 23:42:00,
2013-03-04 18:52:00,34.0,22.0,30.03,East,90,0.0,3.0,62,0.00,,,0.00,,2013-03-04 23:52:00,
2013-03-04 19:02:00,34.0,22.0,30.03,ENE,67,1.0,1.0,62,0.00,,,0.00,,2013-03-05 00:02:00,
2013-03-04 19:12:00,34.0,22.0,30.03,ENE,67,1.0,1.0,62,0.00,,,0.00,,2013-03-05 00:12:00,
2013-03-04 19:22:00,34.0,23.0,30.02,SSE,157,1.0,1.0,63,0.00,,,0.00,,2013-03-05 00:22:00,
2013-03-04 19:32:00,34.0,23.0,30.03,East,100,1.0,1.0,63,0.00,,,0.00,,2013-03-05 00:32:00,
2013-03-04 19:42:00,34.0,23.0,30.03,East,100,1.0,1.0,63,0.00,,,0.00,,2013-03-05 00:42:00,
2013-03-04 19:52:00,34.0,23.0,30.03,East,92,2.0,2.0,64,0.00,,,0.00,,2013-03-05 00:52:00,
2013-03-04 20:01:00,33.0,23.0,30.04,SE,135,0.0,4.0,65,0.00,,,0.00,,2013-03-05 01:01:00,
2013-03-04 20:12:00,33.0,23.0,30.04,SE,135,0.0,4.0,65,0.00,,,0.00,,2013-03-05 01:12:00,
2013-03-04 20:22:00,33.0,23.0,30.04,ESE,112,1.0,1.0,66,0.00,,,0.00,,2013-03-05 01:22:00,
2013-03-04 20:32:00,33.0,23.0,30.05,SE,135,0.0,2.0,67,0.00,,,0.00,,2013-03-05 01:32:00,
2013-03-04 20:42:00,33.0,23.0,30.05,SE,135,0.0,2.0,67,0.00,,,0.00,,2013-03-05 01:42:00,
2013-03-04 20:52:00,33.0,24.0,30.05,SE,135,2.0,2.0,68,0.00,,,0.00,,2013-03-05 01:52:00,
2013-03-04 21:01:00,33.0,24.0,30.05,ESE,112,0.0,0.0,68,0.00,,,0.00,,2013-03-05 02:01:00,
2013-03-04 21:11:00,33.0,24.0,30.05,ESE,112,0.0,0.0,68,0.00,,,0.00,,2013-03-05 02:11:00,
2013-03-04 21:22:00,33.0,24.0,30.07,ESE,112,0.0,0.0,68,0.00,,,0.00,,2013-03-05 02:22:00,
2013-03-04 21:32:00,32.0,23.0,30.07,SE,135,0.0,0.0,69,0.00,,,0.00,,2013-03-05 02:32:00,
2013-03-04 21:42:00,32.0,23.0,30.07,SE,135,0.0,0.0,69,0.00,,,0.00,,2013-03-05 02:42:00,
2013-03-04 21:53:00,32.0,24.0,30.07,ENE,67,0.0,1.0,71,0.00,,,0.00,,2013-03-05 02:53:00,
2013-03-04 22:02:00,31.0,23.0,30.06,East,90,0.0,0.0,72,0.00,,,0.00,,2013-03-05 03:02:00,
2013-03-04 22:12:00,31.0,24.0,30.06,NE,45,0.0,0.0,74,0.00,,,0.00,,2013-03-05 03:12:00,
2013-03-04 22:22:00,31.0,24.0,30.06,NE,45,0.0,0.0,74,0.00,,,0.00,,2013-03-05 03:22:00,
2013-03-04 22:32:00,31.0,24.0,30.06,East,90,0.0,3.0,75,0.00,,,0.00,,2013-03-05 03:32:00,
2013-03-04 22:42:00,31.0,24.0,30.06,East,90,0.0,3.0,75,0.00,,,0.00,,2013-03-05 03:42:00,
2013-03-04 22:52:00,31.0,24.0,30.08,ESE,112,0.0,0.0,76,0.00,,,0.00,,2013-03-05 03:52:00,
2013-03-04 23:02:00,31.0,24.0,30.08,SSE,157,0.0,0.0,76,0.00,,,0.00,,2013-03-05 04:02:00,
2013-03-04 23:12:00,31.0,24.0,30.08,SSE,157,0.0,0.0,76,0.00,,,0.00,,2013-03-05 04:12:00,
2013-03-04 23:22:00,31.0,25.0,30.07,SE,135,0.0,0.0,78,0.00,,,0.00,,2013-03-05 04:22:00,
2013-03-04 23:32:00,31.0,25.0,30.06,ESE,112,0.0,0.0,78,0.00,,,0.00,,2013-03-05 04:32:00,
2013-03-04 23:42:00,31.0,25.0,30.06,ESE,112,0.0,0.0,78,0.00,,,0.00,,2013-03-05 04:42:00,
2013-03-04 23:52:00,31.0,25.0,30.05,East,90,0.0,0.0,78,0.00,,,0.00,,2013-03-05 04:52:00,